[Date Prev][Date Next][Thread Prev][Thread Next] - [Date Index][Thread Index][Author Index]
2 Line ISS Keps 5-4
- Subject: [sarex] 2 Line ISS Keps 5-4
- From: "Dave Larsen PhD" <doc@xxxxxxxxxxx>
- Date: Tue, 4 May 2004 02:21:11 -0700
ISS
1 25544U 98067A 04125.27063818 .00019380 00000-0 16750-3 0 7044
2 25544 51.6278 189.5811 0011045 97.2594 22.0248 15.69160267311423
----
Via the sarex mailing list at AMSAT.ORG courtesy of AMSAT-NA.
To unsubscribe, send "unsubscribe sarex" to Majordomo@amsat.org
AMSAT Home